TimeMDT,TemperatureF,Dew PointF,Humidity,Sea Level PressureIn,VisibilityMPH,Wind Direction,Wind SpeedMPH,Gust SpeedMPH,PrecipitationIn,Events,Conditions,WindDirDegrees,DateUTC
12:15 AM,73.4,53.6,50,30.05,10.0,NNE,10.4,-,N/A,,Clear,30,2012-07-23 06:15:00
12:35 AM,73.4,53.6,50,30.04,10.0,NE,11.5,-,N/A,,Clear,40,2012-07-23 06:35:00
12:55 AM,73.4,53.6,50,30.04,10.0,NE,8.1,-,N/A,,Clear,40,2012-07-23 06:55:00
1:15 AM,73.4,55.4,53,30.05,10.0,ENE,8.1,-,N/A,,Clear,60,2012-07-23 07:15:00
1:35 AM,73.4,55.4,53,30.05,10.0,NE,11.5,-,N/A,,Clear,40,2012-07-23 07:35:00
1:55 AM,71.6,55.4,57,30.05,10.0,NE,11.5,-,N/A,,Clear,40,2012-07-23 07:55:00
2:15 AM,71.6,55.4,57,30.03,10.0,NE,12.7,-,N/A,,Clear,40,2012-07-23 08:15:00
2:35 AM,71.6,55.4,57,30.03,10.0,NE,13.8,-,N/A,,Clear,50,2012-07-23 08:35:00
2:55 AM,71.6,55.4,57,30.03,10.0,NE,13.8,-,N/A,,Clear,50,2012-07-23 08:55:00
3:15 AM,71.6,55.4,57,30.03,10.0,NE,15.0,-,N/A,,Clear,50,2012-07-23 09:15:00
3:35 AM,69.8,55.4,60,30.02,10.0,NE,15.0,-,N/A,,Clear,50,2012-07-23 09:35:00
3:55 AM,69.8,55.4,60,30.03,10.0,NE,11.5,-,N/A,,Clear,40,2012-07-23 09:55:00
4:15 AM,69.8,55.4,60,30.04,10.0,NE,10.4,-,N/A,,Clear,50,2012-07-23 10:15:00
4:35 AM,69.8,55.4,60,30.03,10.0,NE,12.7,-,N/A,,Clear,50,2012-07-23 10:35:00
4:55 AM,69.8,55.4,60,30.03,10.0,ENE,13.8,-,N/A,,Clear,60,2012-07-23 10:55:00
5:15 AM,69.8,55.4,60,30.03,10.0,NE,13.8,-,N/A,,Clear,50,2012-07-23 11:15:00
5:35 AM,69.8,55.4,60,30.03,10.0,NE,13.8,-,N/A,,Clear,50,2012-07-23 11:35:00
5:55 AM,69.8,57.2,64,30.04,10.0,NE,13.8,-,N/A,,Clear,50,2012-07-23 11:55:00
6:15 AM,69.8,57.2,64,30.04,10.0,ENE,13.8,-,N/A,,Clear,60,2012-07-23 12:15:00
6:35 AM,69.8,57.2,64,30.05,10.0,ENE,15.0,-,N/A,,Clear,60,2012-07-23 12:35:00
6:55 AM,69.8,57.2,64,30.04,10.0,NE,12.7,-,N/A,,Clear,50,2012-07-23 12:55:00
7:15 AM,69.8,57.2,64,30.05,10.0,ENE,10.4,-,N/A,,Clear,60,2012-07-23 13:15:00
7:35 AM,69.8,57.2,64,30.05,10.0,ENE,10.4,-,N/A,,Clear,60,2012-07-23 13:35:00
7:55 AM,69.8,59.0,68,30.05,10.0,ENE,10.4,-,N/A,,Clear,70,2012-07-23 13:55:00
8:15 AM,71.6,59.0,64,30.05,10.0,East,9.2,-,N/A,,Clear,80,2012-07-23 14:15:00
8:35 AM,71.6,57.2,60,30.06,10.0,ESE,12.7,-,N/A,,Clear,110,2012-07-23 14:35:00
8:55 AM,71.6,57.2,60,30.06,10.0,ESE,10.4,-,N/A,,Scattered Clouds,110,2012-07-23 14:55:00
9:15 AM,71.6,57.2,60,30.05,10.0,East,8.1,-,N/A,,Mostly Cloudy,100,2012-07-23 15:15:00
9:35 AM,73.4,57.2,57,30.04,10.0,East,10.4,-,N/A,,Mostly Cloudy,100,2012-07-23 15:35:00
9:55 AM,73.4,57.2,57,30.04,10.0,ESE,12.7,-,N/A,,Scattered Clouds,120,2012-07-23 15:55:00
10:35 AM,75.2,57.2,53,30.03,10.0,East,10.4,-,N/A,,Scattered Clouds,100,2012-07-23 16:35:00
10:55 AM,75.2,57.2,53,30.03,10.0,East,5.8,-,N/A,,Partly Cloudy,80,2012-07-23 16:55:00
11:15 AM,78.8,57.2,47,30.03,10.0,East,8.1,-,N/A,,Partly Cloudy,90,2012-07-23 17:15:00
11:35 AM,80.6,57.2,45,30.02,10.0,East,12.7,-,N/A,,Partly Cloudy,90,2012-07-23 17:35:00
12:15 PM,84.2,57.2,40,30.00,10.0,East,11.5,16.1,N/A,,Clear,90,2012-07-23 18:15:00
12:35 PM,84.2,57.2,40,29.99,10.0,ESE,12.7,20.7,N/A,,Clear,110,2012-07-23 18:35:00
12:55 PM,84.2,59.0,42,29.99,10.0,ESE,13.8,-,N/A,,Clear,120,2012-07-23 18:55:00
1:15 PM,84.2,57.2,40,29.98,10.0,East,10.4,-,N/A,,Clear,100,2012-07-23 19:15:00
1:35 PM,86.0,57.2,37,29.98,10.0,East,13.8,17.3,N/A,,Clear,80,2012-07-23 19:35:00
1:55 PM,87.8,59.0,38,29.98,10.0,East,15.0,-,N/A,,Clear,100,2012-07-23 19:55:00
2:15 PM,87.8,59.0,38,29.97,10.0,ESE,12.7,-,N/A,,Clear,110,2012-07-23 20:15:00
2:35 PM,87.8,60.8,40,29.97,10.0,East,11.5,18.4,N/A,,Clear,100,2012-07-23 20:35:00
2:55 PM,89.6,60.8,38,29.96,10.0,ENE,8.1,17.3,N/A,,Clear,70,2012-07-23 20:55:00
3:35 PM,91.4,57.2,31,29.95,10.0,ESE,15.0,19.6,N/A,,Clear,120,2012-07-23 21:35:00
3:55 PM,89.6,57.2,33,29.95,10.0,East,12.7,-,N/A,,Clear,90,2012-07-23 21:55:00
4:15 PM,91.4,55.4,29,29.94,10.0,ESE,12.7,19.6,N/A,,Clear,120,2012-07-23 22:15:00
4:35 PM,91.4,55.4,29,29.93,10.0,ESE,15.0,-,N/A,,Clear,110,2012-07-23 22:35:00
5:15 PM,91.4,57.2,31,29.92,10.0,ESE,13.8,-,N/A,,Clear,110,2012-07-23 23:15:00
5:35 PM,91.4,57.2,31,29.91,10.0,ESE,19.6,24.2,N/A,,Clear,110,2012-07-23 23:35:00
5:55 PM,89.6,57.2,33,29.90,10.0,ESE,19.6,-,N/A,,Clear,120,2012-07-23 23:55:00
6:15 PM,89.6,57.2,33,29.90,10.0,ESE,16.1,24.2,N/A,,Clear,110,2012-07-24 00:15:00
6:35 PM,89.6,59.0,36,29.90,10.0,ESE,16.1,-,N/A,,Clear,120,2012-07-24 00:35:00
6:55 PM,87.8,59.0,38,29.89,10.0,ESE,16.1,-,N/A,,Clear,110,2012-07-24 00:55:00
7:15 PM,89.6,59.0,36,29.89,10.0,ESE,15.0,-,N/A,,Clear,110,2012-07-24 01:15:00
7:35 PM,87.8,59.0,38,29.89,10.0,ESE,18.4,21.9,N/A,,Clear,120,2012-07-24 01:35:00
7:55 PM,87.8,59.0,38,29.89,10.0,ESE,13.8,19.6,N/A,,Clear,110,2012-07-24 01:55:00
8:15 PM,86.0,57.2,37,29.89,10.0,ESE,17.3,21.9,N/A,,Clear,110,2012-07-24 02:15:00
8:35 PM,84.2,59.0,42,29.90,10.0,East,13.8,-,N/A,,Clear,100,2012-07-24 02:35:00
8:55 PM,84.2,59.0,42,29.91,10.0,ESE,10.4,-,N/A,,Clear,110,2012-07-24 02:55:00
9:15 PM,84.2,59.0,42,29.92,10.0,East,12.7,-,N/A,,Clear,100,2012-07-24 03:15:00
9:35 PM,80.6,59.0,48,29.92,10.0,ENE,9.2,-,N/A,,Clear,70,2012-07-24 03:35:00
9:55 PM,80.6,59.0,48,29.91,10.0,East,11.5,-,N/A,,Clear,80,2012-07-24 03:55:00
10:15 PM,80.6,59.0,48,29.92,10.0,East,11.5,-,N/A,,Clear,80,2012-07-24 04:15:00
10:35 PM,80.6,60.8,51,29.91,10.0,East,10.4,-,N/A,,Clear,80,2012-07-24 04:35:00
10:55 PM,78.8,60.8,54,29.91,10.0,East,5.8,-,N/A,Thunderstorm,Partly Cloudy,80,2012-07-24 04:55:00
11:15 PM,78.8,60.8,54,29.93,10.0,Calm,Calm,-,N/A,Thunderstorm,Mostly Cloudy,0,2012-07-24 05:15:00
11:35 PM,75.2,64.4,69,29.95,10.0,South,13.8,-,0.02,Thunderstorm,Thunderstorm,180,2012-07-24 05:35:00
11:55 PM,-9999,-9999,N/A,29.98,-9999.0,SSW,8.1,-,N/A,Thunderstorm,Thunderstorm,200,2012-07-24 05:55:00